Date String (YYYY-MM-DD hh:mm:ss) UTC,Instrument flags,Ambient pressure (hPa),Sample flow (lpm),Bypass flow (lpm),Sample temperature (°C),Ambient temperature (°C),ASC tube jacket temperature (°C),LED temperature (°C),Box temperature (°C),Sample RH (%),Span deviation,Mass concentration (μg/m³),Mass concentration (μg/m³),Mass concentration (μg/m³)
DateTimeUTC,F1_M11,P_M11,Q1_M11,Q2_M11,T1_M11,T2_M11,T3_M11,T4_M11,T5_M11,U1_M11,ZSPAN_M11,X0_M11,X2_M11,X1_M11
2022-05-17 13:00:00,,0822.5,5.00,0.00,29.9,28.5,00.0,39.0,31.7,11.8,0000.0,0011.76,0004.86,0003.71
2022-05-17 13:01:00,,0822.6,5.02,0.00,29.9,28.5,00.0,39.0,31.7,11.8,0000.0,0011.51,0004.84,0003.71
2022-05-17 13:02:00,,0822.6,5.01,0.00,29.9,28.5,00.0,39.0,31.7,11.8,0000.0,0011.54,0004.83,0003.72
2022-05-17 13:03:00,,0822.6,5.00,0.00,29.9,28.5,00.0,39.0,31.7,11.9,0000.0,0011.64,0004.82,0003.72
2022-05-17 13:04:00,,0822.6,4.99,0.00,29.9,28.5,00.0,39.0,31.7,11.9,0000.0,0011.96,0004.84,0003.73
2022-05-17 13:05:00,,0822.6,4.99,0.00,29.9,28.6,00.0,39.0,31.7,11.8,0000.0,0011.99,0004.86,0003.73
2022-05-17 13:06:00,,0822.6,4.99,0.00,29.9,28.6,00.0,39.0,31.7,11.8,0000.0,0012.08,0004.84,0003.72
2022-05-17 13:07:00,,0822.6,5.00,0.00,29.9,28.6,00.0,39.0,31.7,11.8,0000.0,0012.07,0004.87,0003.73
2022-05-17 13:08:00,,0822.6,5.01,0.00,29.9,28.6,00.0,39.0,31.7,11.8,0000.0,0012.07,0004.85,0003.73
2022-05-17 13:09:00,,0822.5,5.00,0.00,30.0,28.6,00.0,39.0,31.8,11.8,0000.0,0012.19,0004.86,0003.72
2022-05-17 13:10:00,,0822.5,5.00,0.00,30.0,28.6,00.0,39.0,31.8,11.8,0000.0,0012.33,0004.86,0003.72
2022-05-17 13:11:00,,0822.6,5.00,0.00,30.0,28.6,00.0,39.0,31.8,11.7,0000.0,0013.19,0004.87,0003.72
2022-05-17 13:12:00,,0822.6,5.01,0.00,30.0,28.6,00.0,39.0,31.8,11.8,0000.0,0013.48,0004.86,0003.73
2022-05-17 13:13:00,,0822.6,4.99,0.00,30.0,28.6,00.0,39.0,31.7,11.9,0000.0,0013.56,0004.86,0003.72
2022-05-17 13:14:00,,0822.6,4.99,0.00,30.0,28.6,00.0,39.0,31.8,12.0,0000.0,0013.33,0004.84,0003.72
2022-05-17 13:15:00,,0822.5,5.00,0.00,30.0,28.6,00.0,39.0,31.8,12.3,0000.0,0012.99,0004.78,0003.70
2022-05-17 13:16:00,,0822.5,5.00,0.00,30.0,28.6,00.0,39.0,31.7,12.0,0000.0,0013.15,0004.81,0003.70
2022-05-17 13:17:00,,0822.5,5.00,0.00,30.0,28.6,00.0,39.0,31.8,12.1,0000.0,0012.93,0004.78,0003.70
2022-05-17 13:18:00,,0822.5,4.99,0.00,30.0,28.6,00.0,39.0,31.8,12.0,0000.0,0012.65,0004.78,0003.69
2022-05-17 13:19:00,,0822.5,5.01,0.00,30.0,28.7,00.0,39.0,31.8,11.8,0000.0,0012.57,0004.77,0003.68
2022-05-17 13:20:00,,0822.5,5.01,0.00,30.0,28.7,00.0,39.0,31.8,12.4,0000.0,0011.69,0004.72,0003.67
2022-05-17 13:21:00,,0822.6,4.99,0.00,30.0,28.7,00.0,39.0,31.8,12.2,0000.0,0011.15,0004.72,0003.66
2022-05-17 13:22:00,,0822.6,5.00,0.00,30.0,28.7,00.0,39.0,31.8,12.3,0000.0,0010.75,0004.72,0003.65
2022-05-17 13:23:00,,0822.6,5.01,0.00,30.0,28.6,00.0,39.1,31.8,12.0,0000.0,0010.73,0004.67,0003.64
2022-05-17 13:24:00,,0822.5,5.01,0.00,30.0,28.7,00.0,39.1,31.8,12.4,0000.0,0010.64,0004.65,0003.62
2022-05-17 13:25:00,,0822.5,5.00,0.00,30.0,28.7,00.0,39.1,31.8,12.2,0000.0,0011.04,0004.66,0003.60
2022-05-17 13:26:00,,0822.5,5.00,0.00,30.1,28.7,00.0,39.1,31.8,12.8,0000.0,0011.79,0004.67,0003.60
2022-05-17 13:27:00,,0822.5,5.00,0.00,30.1,28.7,00.0,39.1,31.8,13.0,0000.0,0012.33,0004.61,0003.58
2022-05-17 13:28:00,,0822.5,5.02,0.00,30.1,28.7,00.0,39.1,31.8,13.2,0000.0,0012.58,0004.62,0003.58
2022-05-17 13:29:00,,0822.5,4.99,0.00,30.1,28.7,00.0,39.1,31.8,12.7,0000.0,0012.84,0004.62,0003.58
2022-05-17 13:30:00,,0822.5,5.00,0.00,30.1,28.7,00.0,39.1,31.8,13.0,0000.0,0012.73,0004.62,0003.57
2022-05-17 13:31:00,,0822.5,5.00,0.00,30.1,28.7,00.0,39.1,31.9,12.9,0000.0,0013.00,0004.67,0003.57
2022-05-17 13:32:00,,0822.5,5.00,0.00,30.1,28.7,00.0,39.1,31.9,13.0,0000.0,0013.12,0004.69,0003.57
2022-05-17 13:33:00,,0822.5,5.00,0.00,30.1,28.7,00.0,39.1,31.9,12.9,0000.0,0012.82,0004.69,0003.56
2022-05-17 13:34:00,,0822.5,4.99,0.00,30.1,28.7,00.0,39.1,31.9,12.8,0000.0,0013.17,0004.76,0003.56
2022-05-17 13:35:00,,0822.5,5.00,0.00,30.1,28.6,00.0,39.1,31.9,13.1,0000.0,0013.04,0004.77,0003.56
2022-05-17 13:36:00,,0822.5,5.00,0.00,30.1,28.7,00.0,39.1,31.8,13.4,0000.0,0012.89,0004.72,0003.57
2022-05-17 13:37:00,,0822.5,5.01,0.00,30.1,28.7,00.0,39.1,31.9,13.4,0000.0,0013.31,0004.77,0003.57
2022-05-17 13:38:00,,0822.5,5.01,0.00,30.1,28.7,00.0,39.1,31.9,13.6,0000.0,0013.50,0004.80,0003.57
2022-05-17 13:39:00,,0822.6,5.00,0.00,30.1,28.7,00.0,39.1,31.9,14.1,0000.0,0013.30,0004.76,0003.55
2022-05-17 13:40:00,,0822.6,5.00,0.00,30.1,28.8,00.0,39.1,31.9,13.6,0000.0,0013.32,0004.75,0003.52
2022-05-17 13:41:00,,0822.6,5.00,0.00,30.1,28.8,00.0,39.1,31.9,13.2,0000.0,0013.45,0004.73,0003.51
2022-05-17 13:42:00,,0822.6,5.01,0.00,30.1,28.8,00.0,39.1,31.9,13.0,0000.0,0014.57,0004.72,0003.50
2022-05-17 13:43:00,,0822.6,5.00,0.00,30.1,28.9,00.0,39.1,31.9,13.6,0000.0,0015.10,0004.66,0003.49
2022-05-17 13:44:00,,0822.6,5.01,0.00,30.1,28.9,00.0,39.1,31.9,14.1,0000.0,0015.42,0004.66,0003.50
2022-05-17 13:45:00,,0822.6,5.00,0.00,30.1,28.9,00.0,39.2,31.9,13.7,0000.0,0014.71,0004.62,0003.49
2022-05-17 13:46:00,,0822.6,5.00,0.00,30.1,28.9,00.0,39.1,31.9,14.1,0000.0,0015.19,0004.60,0003.48
2022-05-17 13:47:00,,0822.6,5.02,0.00,30.1,28.9,00.0,39.2,31.9,14.1,0000.0,0015.37,0004.63,0003.47
2022-05-17 13:48:00,,0822.6,5.00,0.00,30.2,28.9,00.0,39.2,31.9,14.1,0000.0,0014.94,0004.63,0003.47
2022-05-17 13:49:00,,0822.6,5.00,0.00,30.2,29.0,00.0,39.2,31.9,13.7,0000.0,0014.02,0004.63,0003.46
2022-05-17 13:50:00,,0822.5,5.01,0.00,30.2,29.0,00.0,39.2,32.0,13.8,0000.0,0014.48,0004.61,0003.46
2022-05-17 13:51:00,,0822.5,5.00,0.00,30.2,29.0,00.0,39.2,32.0,14.1,0000.0,0014.61,0004.59,0003.48
2022-05-17 13:52:00,,0822.5,5.02,0.00,30.2,29.0,00.0,39.2,32.0,14.0,0000.0,0015.85,0004.64,0003.49
2022-05-17 13:53:00,,0822.5,5.00,0.00,30.2,29.0,00.0,39.2,32.0,14.0,0000.0,0015.19,0004.63,0003.49
2022-05-17 13:54:00,,0822.5,5.01,0.00,30.2,29.0,00.0,39.2,32.0,14.1,0000.0,0014.75,0004.65,0003.50
2022-05-17 13:55:00,,0822.5,4.98,0.00,30.2,29.1,00.0,39.2,32.0,14.8,0000.0,0014.42,0004.63,0003.50
2022-05-17 13:56:00,,0822.5,5.00,0.00,30.2,29.1,00.0,39.2,32.0,15.1,0000.0,0014.49,0004.67,0003.51
2022-05-17 13:57:00,,0822.5,5.00,0.00,30.2,29.1,00.0,39.2,32.0,15.1,0000.0,0014.45,0004.70,0003.54
2022-05-17 13:58:00,,0822.5,5.01,0.00,30.3,29.1,00.0,39.2,32.0,14.6,0000.0,0014.62,0004.75,0003.56
2022-05-17 13:59:00,,0822.6,5.00,0.00,30.3,29.1,00.0,39.3,32.0,14.8,0000.0,0015.25,0004.74,0003.57
